When you browse on this site, cookies collect data to enhance your experience and personalize the content and advertising you see.
Visit our Privacy Policy to learn more. By continuing to use the site, you agree to this use of cookies and data.
  • In Hungary
  • List of Countries
  • For 7 days
  • Water Temperature
  • Satellite Maps
  • Weather Map
  • News
  • Weather Widgets
  • user-avatar
    Login

    Hourly Weather Kasama

    Today, 26 April, Friday

    Time Temperature Precipitation Wind Pressure Humidity
    00:00 +36°C° 0 mm 1 mps 719 mmHg 10%
    01:00 +35°C° 0 mm 1 mps 719 mmHg 11%
    02:00 +35°C° 0 mm 1 mps 719 mmHg 11%
    03:00 +34°C° 0 mm 1 mps 719 mmHg 11%
    04:00 +34°C° 0 mm 1 mps 719 mmHg 10%
    05:00 +33°C° 0 mm 1 mps 719 mmHg 10%
    06:00 +35°C° 0 mm 1 mps 719 mmHg 9%
    07:00 +37°C° 0 mm 1 mps 720 mmHg 8%
    08:00 +40°C° 0 mm 1 mps 720 mmHg 7%
    09:00 +41°C° 0 mm 1 mps 720 mmHg 6%
    10:00 +43°C° 0 mm 1 mps 720 mmHg 5%
    11:00 +46°C° 0 mm 2 mps 720 mmHg 4%
    12:00 +46°C° 0 mm 1 mps 720 mmHg 4%
    13:00 +47°C° 0 mm 1 mps 719 mmHg 4%
    14:00 +48°C° 0 mm 1 mps 718 mmHg 4%
    15:00 +47°C° 0 mm 1 mps 718 mmHg 5%
    16:00 +46°C° 0 mm 1 mps 717 mmHg 5%
    17:00 +45°C° 0 mm 1 mps 717 mmHg 5%
    18:00 +44°C° 0 mm 1 mps 717 mmHg 6%
    19:00 +43°C° 0 mm 1 mps 717 mmHg 6%
    20:00 +41°C° 0 mm 1 mps 717 mmHg 7%
    21:00 +40°C° 0 mm 1 mps 718 mmHg 7%
    22:00 +40°C° 0 mm 1 mps 718 mmHg 7%
    23:00 +39°C° 0 mm 1 mps 718 mmHg 8%

    Tomorrow, 27 April, Saturday

    Time Temperature Precipitation Wind Pressure Humidity
    00:00 +37°C° 0 mm 1 mps 718 mmHg 8%
    01:00 +37°C° 0 mm 1 mps 718 mmHg 9%
    02:00 +36°C° 0 mm 1 mps 717 mmHg 10%
    03:00 +35°C° 0 mm 1 mps 718 mmHg 11%
    04:00 +35°C° 0 mm 1 mps 718 mmHg 11%
    05:00 +34°C° 0 mm 1 mps 718 mmHg 12%
    06:00 +37°C° 0 mm 2 mps 719 mmHg 15%
    07:00 +38°C° 0 mm 2 mps 720 mmHg 17%
    08:00 +39°C° 0 mm 2 mps 720 mmHg 19%
    09:00 +40°C° 0 mm 3 mps 720 mmHg 21%
    10:00 +43°C° 0 mm 3 mps 721 mmHg 22%
    11:00 +44°C° 0 mm 3 mps 721 mmHg 23%
    12:00 +44°C° 0 mm 3 mps 720 mmHg 22%
    13:00 +44°C° 0 mm 3 mps 719 mmHg 21%
    14:00 +43°C° 0 mm 2 mps 718 mmHg 19%
    15:00 +43°C° 0 mm 2 mps 718 mmHg 19%
    16:00 +42°C° 0 mm 2 mps 717 mmHg 20%
    17:00 +42°C° 0 mm 2 mps 717 mmHg 20%
    18:00 +42°C° 0 mm 2 mps 717 mmHg 21%
    19:00 +41°C° 0 mm 2 mps 718 mmHg 23%
    20:00 +40°C° 0 mm 2 mps 718 mmHg 24%
    21:00 +40°C° 0 mm 2 mps 719 mmHg 26%
    22:00 +39°C° 0 mm 2 mps 719 mmHg 27%
    23:00 +39°C° 0 mm 2 mps 719 mmHg 29%

    Day after tomorrow, 28 April, Sunday

    Time Temperature Precipitation Wind Pressure Humidity
    00:00 +38°C° 0 mm 2 mps 719 mmHg 31%
    01:00 +36°C° 0 mm 1 mps 718 mmHg 33%
    02:00 +35°C° 0 mm 1 mps 718 mmHg 35%
    03:00 +35°C° 0 mm 1 mps 718 mmHg 36%
    04:00 +34°C° 0 mm 1 mps 718 mmHg 37%
    05:00 +34°C° 0 mm 1 mps 718 mmHg 38%
    06:00 +35°C° 0 mm 1 mps 719 mmHg 35%
    07:00 +37°C° 0 mm 1 mps 720 mmHg 32%
    08:00 +39°C° 0 mm 1 mps 721 mmHg 29%
    09:00 +40°C° 0 mm 1 mps 721 mmHg 27%
    10:00 +42°C° 0 mm 2 mps 721 mmHg 25%
    11:00 +43°C° 0 mm 2 mps 721 mmHg 23%
    12:00 +43°C° 0 mm 2 mps 720 mmHg 23%
    13:00 +43°C° 0 mm 1 mps 719 mmHg 23%
    14:00 +42°C° 0 mm 1 mps 718 mmHg 24%
    15:00 +42°C° 0 mm 1 mps 718 mmHg 23%
    16:00 +42°C° 0 mm 1 mps 718 mmHg 23%
    17:00 +42°C° 0 mm 1 mps 718 mmHg 23%
    18:00 +41°C° 0 mm 1 mps 718 mmHg 24%
    19:00 +41°C° 0 mm 1 mps 718 mmHg 25%
    20:00 +40°C° 0 mm 1 mps 719 mmHg 26%
    21:00 +39°C° 0 mm 1 mps 719 mmHg 27%
    22:00 +39°C° 0 mm 1 mps 719 mmHg 28%
    23:00 +37°C° 0 mm 1 mps 719 mmHg 29%

    29 April, Monday

    Time Temperature Precipitation Wind Pressure Humidity
    00:00 +36°C° 0 mm 1 mps 719 mmHg 31%
    01:00 +36°C° 0 mm 1 mps 719 mmHg 32%
    02:00 +35°C° 0 mm 1 mps 718 mmHg 34%
    03:00 +35°C° 0 mm 1 mps 719 mmHg 35%
    04:00 +34°C° 0 mm 1 mps 719 mmHg 36%
    05:00 +34°C° 0 mm 1 mps 719 mmHg 37%
    06:00 +35°C° 0 mm 1 mps 720 mmHg 35%
    07:00 +36°C° 0 mm 1 mps 721 mmHg 34%
    08:00 +38°C° 0 mm 2 mps 722 mmHg 32%
    09:00 +39°C° 0 mm 2 mps 722 mmHg 30%
    10:00 +40°C° 0 mm 2 mps 722 mmHg 29%
    11:00 +42°C° 0 mm 2 mps 722 mmHg 27%
    12:00 +42°C° 0 mm 2 mps 721 mmHg 25%
    13:00 +42°C° 0 mm 2 mps 720 mmHg 24%
    14:00 +43°C° 0 mm 1 mps 719 mmHg 23%
    15:00 +42°C° 0 mm 2 mps 719 mmHg 24%
    16:00 +42°C° 0 mm 2 mps 719 mmHg 25%
    17:00 +41°C° 0 mm 2 mps 718 mmHg 26%
    18:00 +40°C° 0 mm 2 mps 719 mmHg 28%
    19:00 +40°C° 0 mm 2 mps 719 mmHg 29%
    20:00 +39°C° 0 mm 2 mps 720 mmHg 30%
    21:00 +39°C° 0 mm 2 mps 720 mmHg 32%
    22:00 +38°C° 0 mm 2 mps 720 mmHg 33%
    23:00 +37°C° 0 mm 1 mps 720 mmHg 35%

    30 April, Tuesday

    Time Temperature Precipitation Wind Pressure Humidity
    00:00 +36°C° 0 mm 1 mps 720 mmHg 36%
    01:00 +36°C° 0 mm 1 mps 719 mmHg 38%
    02:00 +35°C° 0 mm 1 mps 719 mmHg 39%
    03:00 +35°C° 0 mm 1 mps 719 mmHg 40%
    04:00 +34°C° 0 mm 1 mps 719 mmHg 40%
    05:00 +34°C° 0 mm 1 mps 720 mmHg 41%
    06:00 +36°C° 0 mm 2 mps 720 mmHg 39%
    07:00 +37°C° 0 mm 2 mps 721 mmHg 36%
    08:00 +38°C° 0 mm 3 mps 722 mmHg 33%
    09:00 +40°C° 0 mm 2 mps 722 mmHg 30%
    10:00 +42°C° 0 mm 2 mps 722 mmHg 26%
    11:00 +45°C° 0 mm 2 mps 722 mmHg 23%
    12:00 +43°C° 0 mm 2 mps 721 mmHg 23%
    13:00 +42°C° 0 mm 2 mps 720 mmHg 24%
    14:00 +41°C° 0 mm 2 mps 719 mmHg 24%
    15:00 +42°C° 0 mm 2 mps 719 mmHg 24%
    16:00 +42°C° 0 mm 2 mps 719 mmHg 24%
    17:00 +42°C° 0 mm 2 mps 719 mmHg 24%
    18:00 +41°C° 0 mm 2 mps 719 mmHg 25%
    19:00 +40°C° 0 mm 1 mps 719 mmHg 27%
    20:00 +39°C° 0 mm 1 mps 719 mmHg 28%
    21:00 +39°C° 0 mm 1 mps 719 mmHg 29%
    22:00 +37°C° 0 mm 1 mps 719 mmHg 29%
    23:00 +37°C° 0 mm 1 mps 719 mmHg 30%

    1 May, Wednesday

    Time Temperature Precipitation Wind Pressure Humidity
    00:00 +36°C° 0 mm 1 mps 719 mmHg 31%
    01:00 +36°C° 0 mm 1 mps 718 mmHg 32%
    02:00 +35°C° 0 mm 1 mps 718 mmHg 33%
    03:00 +35°C° 0 mm 1 mps 718 mmHg 34%
    04:00 +34°C° 0 mm 1 mps 719 mmHg 35%
    05:00 +34°C° 0 mm 1 mps 719 mmHg 36%
    06:00 +36°C° 0 mm 2 mps 720 mmHg 34%
    07:00 +37°C° 0 mm 2 mps 720 mmHg 32%
    08:00 +38°C° 0 mm 3 mps 721 mmHg 30%
    09:00 +40°C° 0 mm 3 mps 721 mmHg 28%
    10:00 +42°C° 0 mm 3 mps 720 mmHg 26%
    11:00 +43°C° 0 mm 3 mps 720 mmHg 24%
    12:00 +42°C° 0 mm 2 mps 719 mmHg 23%
    13:00 +42°C° 0 mm 2 mps 719 mmHg 22%
    14:00 +43°C° 0 mm 1 mps 718 mmHg 20%
    15:00 +43°C° 0 mm 1 mps 718 mmHg 20%
    16:00 +43°C° 0 mm 2 mps 718 mmHg 20%
    17:00 +43°C° 0 mm 2 mps 717 mmHg 20%
    18:00 +42°C° 0 mm 2 mps 718 mmHg 22%
    19:00 +42°C° 0 mm 3 mps 718 mmHg 24%
    20:00 +40°C° 0 mm 3 mps 718 mmHg 27%
    21:00 +39°C° 0 mm 3 mps 718 mmHg 28%
    22:00 +39°C° 0 mm 2 mps 718 mmHg 29%
    23:00 +37°C° 0 mm 1 mps 718 mmHg 30%
    Show more